Year,Month,Day,Hour,Minute,Value (Times are PST for temperature in C)
2013,05,06,00,00,16.80
2013,05,06,00,01,16.80
2013,05,06,00,02,16.80
2013,05,06,00,03,16.80
2013,05,06,00,04,16.70
2013,05,06,00,05,16.70
2013,05,06,00,06,16.70
2013,05,06,00,07,16.70
2013,05,06,00,08,16.70
2013,05,06,00,09,16.70
2013,05,06,00,10,16.70
2013,05,06,00,11,16.70
2013,05,06,00,12,16.60
2013,05,06,00,13,16.60
2013,05,06,00,14,16.60
2013,05,06,00,15,16.50
2013,05,06,00,16,16.40
2013,05,06,00,17,16.30
2013,05,06,00,18,16.30
2013,05,06,00,19,16.20
2013,05,06,00,20,16.10
2013,05,06,00,21,16.00
2013,05,06,00,22,15.90
2013,05,06,00,23,15.70
2013,05,06,00,24,15.60
2013,05,06,00,25,15.50
2013,05,06,00,26,15.30
2013,05,06,00,27,15.30
2013,05,06,00,28,15.20
2013,05,06,00,29,15.20
2013,05,06,00,30,15.10
2013,05,06,00,31,15.10
2013,05,06,00,32,15.10
2013,05,06,00,33,15.10
2013,05,06,00,34,15.10
2013,05,06,00,35,15.10
2013,05,06,00,36,15.10
2013,05,06,00,37,15.20
2013,05,06,00,38,15.30
2013,05,06,00,39,15.40
2013,05,06,00,40,15.50
2013,05,06,00,41,15.50
2013,05,06,00,42,15.60
2013,05,06,00,43,15.60
2013,05,06,00,44,15.60
2013,05,06,00,45,15.50
2013,05,06,00,46,15.50
2013,05,06,00,47,15.50
2013,05,06,00,48,15.50
2013,05,06,00,49,15.50
2013,05,06,00,50,15.50
2013,05,06,00,51,15.50
2013,05,06,00,52,15.50
2013,05,06,00,53,15.50
2013,05,06,00,54,15.50
2013,05,06,00,55,15.50
2013,05,06,00,56,15.50
2013,05,06,00,57,15.40
2013,05,06,00,58,15.40
2013,05,06,00,59,15.40
2013,05,06,01,00,15.40
2013,05,06,01,01,15.30
2013,05,06,01,02,15.30
2013,05,06,01,03,15.30
2013,05,06,01,04,15.30
2013,05,06,01,05,15.20
2013,05,06,01,06,15.20
2013,05,06,01,07,15.20
2013,05,06,01,08,15.20
2013,05,06,01,09,15.10
2013,05,06,01,10,15.10
2013,05,06,01,11,15.10
2013,05,06,01,12,15.10
2013,05,06,01,13,15.00
2013,05,06,01,14,15.00
2013,05,06,01,15,15.00
2013,05,06,01,16,14.90
2013,05,06,01,17,14.90
2013,05,06,01,18,14.90
2013,05,06,01,19,14.90
2013,05,06,01,20,14.80
2013,05,06,01,21,14.80
2013,05,06,01,22,14.80
2013,05,06,01,23,14.70
2013,05,06,01,24,14.70
2013,05,06,01,25,14.60
2013,05,06,01,26,14.60
2013,05,06,01,27,14.60
2013,05,06,01,28,14.50
2013,05,06,01,29,14.50
2013,05,06,01,30,14.50
2013,05,06,01,31,14.50
2013,05,06,01,32,14.50
2013,05,06,01,33,14.50
2013,05,06,01,34,14.50
2013,05,06,01,35,14.50
2013,05,06,01,36,14.50
2013,05,06,01,37,14.50
2013,05,06,01,38,14.50
2013,05,06,01,39,14.50
2013,05,06,01,40,14.50
2013,05,06,01,41,14.50
2013,05,06,01,42,14.50
2013,05,06,01,43,14.50
2013,05,06,01,44,14.50
2013,05,06,01,45,14.40
2013,05,06,01,46,14.40
2013,05,06,01,47,14.40
2013,05,06,01,48,14.40
2013,05,06,01,49,14.30
2013,05,06,01,50,14.30
2013,05,06,01,51,14.30
2013,05,06,01,52,14.30
2013,05,06,01,53,14.20
2013,05,06,01,54,14.20
2013,05,06,01,55,14.20
2013,05,06,01,56,14.10
2013,05,06,01,57,14.10
2013,05,06,01,58,14.10
2013,05,06,01,59,14.00
2013,05,06,02,00,14.00
2013,05,06,02,01,13.90
2013,05,06,02,02,13.90
2013,05,06,02,03,13.90
2013,05,06,02,04,13.90
2013,05,06,02,05,13.80
2013,05,06,02,06,13.80
2013,05,06,02,07,13.80
2013,05,06,02,08,13.80
2013,05,06,02,09,13.80
2013,05,06,02,10,13.80
2013,05,06,02,11,13.70
2013,05,06,02,12,13.70
2013,05,06,02,13,13.70
2013,05,06,02,14,13.70
2013,05,06,02,15,13.70
2013,05,06,02,16,13.70
2013,05,06,02,17,13.70
2013,05,06,02,18,13.70
2013,05,06,02,19,13.60
2013,05,06,02,20,13.60
2013,05,06,02,21,13.60
2013,05,06,02,22,13.60
2013,05,06,02,23,13.60
2013,05,06,02,24,13.60
2013,05,06,02,25,13.60
2013,05,06,02,26,13.60
2013,05,06,02,27,13.60
2013,05,06,02,28,13.60
2013,05,06,02,29,13.60
2013,05,06,02,30,13.60
2013,05,06,02,31,13.60
2013,05,06,02,32,13.60
2013,05,06,02,33,13.60
2013,05,06,02,34,13.60
2013,05,06,02,35,13.70
2013,05,06,02,36,13.70
2013,05,06,02,37,13.70
2013,05,06,02,38,13.70
2013,05,06,02,39,13.70
2013,05,06,02,40,13.70
2013,05,06,02,41,13.70
2013,05,06,02,42,13.70
2013,05,06,02,43,13.80
2013,05,06,02,44,13.80
2013,05,06,02,45,13.80
2013,05,06,02,46,13.80
2013,05,06,02,47,13.80
2013,05,06,02,48,13.90
2013,05,06,02,49,13.90
2013,05,06,02,50,13.90
2013,05,06,02,51,14.00
2013,05,06,02,52,14.00
2013,05,06,02,53,14.00
2013,05,06,02,54,14.00
2013,05,06,02,55,14.10
2013,05,06,02,56,14.10
2013,05,06,02,57,14.10
2013,05,06,02,58,14.10
2013,05,06,02,59,14.20
2013,05,06,03,00,14.20
2013,05,06,03,01,14.30
2013,05,06,03,02,14.30
2013,05,06,03,03,14.30
2013,05,06,03,04,14.40
2013,05,06,03,05,14.40
2013,05,06,03,06,14.50
2013,05,06,03,07,14.50
2013,05,06,03,08,14.60
2013,05,06,03,09,14.60
2013,05,06,03,10,14.60
2013,05,06,03,11,14.60
2013,05,06,03,12,14.60
2013,05,06,03,13,14.60
2013,05,06,03,14,14.60
2013,05,06,03,15,14.60
2013,05,06,03,16,14.60
2013,05,06,03,17,14.60
2013,05,06,03,18,14.50
2013,05,06,03,19,14.50
2013,05,06,03,20,14.50
2013,05,06,03,21,14.40
2013,05,06,03,22,14.40
2013,05,06,03,23,14.40
2013,05,06,03,24,14.40
2013,05,06,03,25,14.30
2013,05,06,03,26,14.30
2013,05,06,03,27,14.30
2013,05,06,03,28,14.30
2013,05,06,03,29,14.30
2013,05,06,03,30,14.30
2013,05,06,03,31,14.30
2013,05,06,03,32,14.30
2013,05,06,03,33,14.20
2013,05,06,03,34,14.20
2013,05,06,03,35,14.20
2013,05,06,03,36,14.10
2013,05,06,03,37,14.00
2013,05,06,03,38,14.00
2013,05,06,03,39,14.00
2013,05,06,03,40,13.90
2013,05,06,03,41,13.90
2013,05,06,03,42,13.80
2013,05,06,03,43,13.80
2013,05,06,03,44,13.70
2013,05,06,03,45,13.70
2013,05,06,03,46,13.60
2013,05,06,03,47,13.60
2013,05,06,03,48,13.60
2013,05,06,03,49,13.60
2013,05,06,03,50,13.50
2013,05,06,03,51,13.50
2013,05,06,03,52,13.50
2013,05,06,03,53,13.40
2013,05,06,03,54,13.40
2013,05,06,03,55,13.40
2013,05,06,03,56,13.40
2013,05,06,03,57,13.40
2013,05,06,03,58,13.40
2013,05,06,03,59,13.40
2013,05,06,04,00,13.40
2013,05,06,04,01,13.40
2013,05,06,04,02,13.30
2013,05,06,04,03,13.30
2013,05,06,04,04,13.30
2013,05,06,04,05,13.30
2013,05,06,04,06,13.20
2013,05,06,04,07,13.20
2013,05,06,04,08,13.20
2013,05,06,04,09,13.20
2013,05,06,04,10,13.20
2013,05,06,04,11,13.10
2013,05,06,04,12,13.10
2013,05,06,04,13,13.10
2013,05,06,04,14,13.10
2013,05,06,04,15,13.10
2013,05,06,04,16,13.10
2013,05,06,04,17,13.10
2013,05,06,04,18,13.10
2013,05,06,04,19,13.10
2013,05,06,04,20,13.10
2013,05,06,04,21,13.10
2013,05,06,04,22,13.20
2013,05,06,04,23,13.20
2013,05,06,04,24,13.20
2013,05,06,04,25,13.20
2013,05,06,04,26,13.20
2013,05,06,04,27,13.10
2013,05,06,04,28,13.10
2013,05,06,04,29,13.10
2013,05,06,04,30,13.10
2013,05,06,04,31,13.00
2013,05,06,04,32,13.00
2013,05,06,04,33,12.90
2013,05,06,04,34,12.90
2013,05,06,04,35,12.90
2013,05,06,04,36,12.80
2013,05,06,04,37,12.80
2013,05,06,04,38,12.80
2013,05,06,04,39,12.80
2013,05,06,04,40,12.70
2013,05,06,04,41,12.70
2013,05,06,04,42,12.70
2013,05,06,04,43,12.70
2013,05,06,04,44,12.70
2013,05,06,04,45,12.70
2013,05,06,04,46,12.60
2013,05,06,04,47,12.60
2013,05,06,04,48,12.60
2013,05,06,04,49,12.60
2013,05,06,04,50,12.60
2013,05,06,04,51,12.60
2013,05,06,04,52,12.60
2013,05,06,04,53,12.60
2013,05,06,04,54,12.60
2013,05,06,04,55,12.60
2013,05,06,04,56,12.60
2013,05,06,04,57,12.60
2013,05,06,04,58,12.60
2013,05,06,04,59,12.60
2013,05,06,05,00,12.60
2013,05,06,05,01,12.60
2013,05,06,05,02,12.60
2013,05,06,05,03,12.60
2013,05,06,05,04,12.50
2013,05,06,05,05,12.50
2013,05,06,05,06,12.50
2013,05,06,05,07,12.40
2013,05,06,05,08,12.40
2013,05,06,05,09,12.40
2013,05,06,05,10,12.40
2013,05,06,05,11,12.40
2013,05,06,05,12,12.40
2013,05,06,05,13,12.40
2013,05,06,05,14,12.40
2013,05,06,05,15,12.40
2013,05,06,05,16,12.40
2013,05,06,05,17,12.50
2013,05,06,05,18,12.50
2013,05,06,05,19,12.50
2013,05,06,05,20,12.60
2013,05,06,05,21,12.60
2013,05,06,05,22,12.60
2013,05,06,05,23,12.60
2013,05,06,05,24,12.60
2013,05,06,05,25,12.60
2013,05,06,05,26,12.60
2013,05,06,05,27,12.60
2013,05,06,05,28,12.60
2013,05,06,05,29,12.60
2013,05,06,05,30,12.60
2013,05,06,05,31,12.60
2013,05,06,05,32,12.60
2013,05,06,05,33,12.60
2013,05,06,05,34,12.70
2013,05,06,05,35,12.70
2013,05,06,05,36,12.70
2013,05,06,05,37,12.70
2013,05,06,05,38,12.70
2013,05,06,05,39,12.70
2013,05,06,05,40,12.70
2013,05,06,05,41,12.70
2013,05,06,05,42,12.70
2013,05,06,05,43,12.70
2013,05,06,05,44,12.70
2013,05,06,05,45,12.70
2013,05,06,05,46,12.70
2013,05,06,05,47,12.70
2013,05,06,05,48,12.70
2013,05,06,05,49,12.70
2013,05,06,05,50,12.70
2013,05,06,05,51,12.70
2013,05,06,05,52,12.70
2013,05,06,05,53,12.70
2013,05,06,05,54,12.80
2013,05,06,05,55,12.80
2013,05,06,05,56,12.80
2013,05,06,05,57,12.80
2013,05,06,05,58,12.80
2013,05,06,05,59,12.90
2013,05,06,06,00,12.90
2013,05,06,06,01,12.90
2013,05,06,06,02,12.90
2013,05,06,06,03,12.90
2013,05,06,06,04,12.90
2013,05,06,06,05,13.00
2013,05,06,06,06,13.10
2013,05,06,06,07,13.10
2013,05,06,06,08,13.10
2013,05,06,06,09,13.20
2013,05,06,06,10,13.20
2013,05,06,06,11,13.20
2013,05,06,06,12,13.20
2013,05,06,06,13,13.20
2013,05,06,06,14,13.20
2013,05,06,06,15,13.10
2013,05,06,06,16,13.10
2013,05,06,06,17,13.10
2013,05,06,06,18,13.10
2013,05,06,06,19,13.00
2013,05,06,06,20,13.00
2013,05,06,06,21,13.00
2013,05,06,06,22,13.00
2013,05,06,06,23,13.00
2013,05,06,06,24,13.00
2013,05,06,06,25,13.00
2013,05,06,06,26,13.00
2013,05,06,06,27,13.00
2013,05,06,06,28,13.10
2013,05,06,06,29,13.10
2013,05,06,06,30,13.10
2013,05,06,06,31,13.20
2013,05,06,06,32,13.20
2013,05,06,06,33,13.30
2013,05,06,06,34,13.30
2013,05,06,06,35,13.30
2013,05,06,06,36,13.40
2013,05,06,06,37,13.40
2013,05,06,06,38,13.50
2013,05,06,06,39,13.60
2013,05,06,06,40,13.60
2013,05,06,06,41,13.70
2013,05,06,06,42,13.80
2013,05,06,06,43,13.80
2013,05,06,06,44,13.90
2013,05,06,06,45,14.00
2013,05,06,06,46,14.10
2013,05,06,06,47,14.20
2013,05,06,06,48,14.30
2013,05,06,06,49,14.30
2013,05,06,06,50,14.40
2013,05,06,06,51,14.50
2013,05,06,06,52,14.50
2013,05,06,06,53,14.60
2013,05,06,06,54,14.60
2013,05,06,06,55,14.70
2013,05,06,06,56,14.70
2013,05,06,06,57,14.70
2013,05,06,06,58,14.80
2013,05,06,06,59,14.90
2013,05,06,07,00,14.90
2013,05,06,07,01,15.00
2013,05,06,07,02,15.10
2013,05,06,07,03,15.10
2013,05,06,07,04,15.20
2013,05,06,07,05,15.30
2013,05,06,07,06,15.40
2013,05,06,07,07,15.40
2013,05,06,07,08,15.50
2013,05,06,07,09,15.50
2013,05,06,07,10,15.60
2013,05,06,07,11,15.60
2013,05,06,07,12,15.60
2013,05,06,07,13,15.60
2013,05,06,07,14,15.60
2013,05,06,07,15,15.60
2013,05,06,07,16,15.60
2013,05,06,07,17,15.60
2013,05,06,07,18,15.60
2013,05,06,07,19,15.60
2013,05,06,07,20,15.60
2013,05,06,07,21,15.60
2013,05,06,07,22,15.50
2013,05,06,07,23,15.50
2013,05,06,07,24,15.50
2013,05,06,07,25,15.50
2013,05,06,07,26,15.40
2013,05,06,07,27,15.40
2013,05,06,07,28,15.40
2013,05,06,07,29,15.40
2013,05,06,07,30,15.40
2013,05,06,07,31,15.50
2013,05,06,07,32,15.60
2013,05,06,07,33,15.60
2013,05,06,07,34,15.60
2013,05,06,07,35,15.70
2013,05,06,07,36,15.70
2013,05,06,07,37,15.80
2013,05,06,07,38,15.80
2013,05,06,07,39,15.90
2013,05,06,07,40,16.00
2013,05,06,07,41,16.00
2013,05,06,07,42,16.10
2013,05,06,07,43,16.20
2013,05,06,07,44,16.20
2013,05,06,07,45,16.30
2013,05,06,07,46,16.40
2013,05,06,07,47,16.50
2013,05,06,07,48,16.60
2013,05,06,07,49,16.70
2013,05,06,07,50,16.80
2013,05,06,07,51,16.80
2013,05,06,07,52,16.90
2013,05,06,07,53,16.90
2013,05,06,07,54,16.90
2013,05,06,07,55,17.00
2013,05,06,07,56,17.00
2013,05,06,07,57,17.10
2013,05,06,07,58,17.20
2013,05,06,07,59,17.20
2013,05,06,08,00,17.30
2013,05,06,08,01,17.40
2013,05,06,08,02,17.50
2013,05,06,08,03,17.60
2013,05,06,08,04,17.70
2013,05,06,08,05,17.70
2013,05,06,08,06,17.80
2013,05,06,08,07,17.80
2013,05,06,08,08,17.70
2013,05,06,08,09,17.60
2013,05,06,08,10,17.40
2013,05,06,08,11,17.20
2013,05,06,08,12,16.90
2013,05,06,08,13,16.70
2013,05,06,08,14,16.40
2013,05,06,08,15,16.20
2013,05,06,08,16,16.00
2013,05,06,08,17,15.80
2013,05,06,08,18,15.60
2013,05,06,08,19,15.40
2013,05,06,08,20,15.20
2013,05,06,08,21,15.00
2013,05,06,08,22,15.00
2013,05,06,08,23,14.90
2013,05,06,08,24,14.90
2013,05,06,08,25,15.00
2013,05,06,08,26,15.00
2013,05,06,08,27,15.10
2013,05,06,08,28,15.20
2013,05,06,08,29,15.30
2013,05,06,08,30,15.40
2013,05,06,08,31,15.60
2013,05,06,08,32,15.80
2013,05,06,08,33,16.00
2013,05,06,08,34,16.20
2013,05,06,08,35,16.40
2013,05,06,08,36,16.50
2013,05,06,08,37,16.70
2013,05,06,08,38,16.90
2013,05,06,08,39,17.00
2013,05,06,08,40,17.20
2013,05,06,08,41,17.30
2013,05,06,08,42,17.30
2013,05,06,08,43,17.40
2013,05,06,08,44,17.30
2013,05,06,08,45,17.20
2013,05,06,08,46,17.10
2013,05,06,08,47,17.00
2013,05,06,08,48,16.70
2013,05,06,08,49,16.60
2013,05,06,08,50,16.40
2013,05,06,08,51,16.10
2013,05,06,08,52,15.90
2013,05,06,08,53,15.80
2013,05,06,08,54,15.70
2013,05,06,08,55,15.70
2013,05,06,08,56,15.60
2013,05,06,08,57,15.60
2013,05,06,08,58,15.50
2013,05,06,08,59,15.40
2013,05,06,09,00,15.30
2013,05,06,09,01,15.30
2013,05,06,09,02,15.30
2013,05,06,09,03,15.30
2013,05,06,09,04,15.30
2013,05,06,09,05,15.30
2013,05,06,09,06,15.30
2013,05,06,09,07,15.40
2013,05,06,09,08,15.40
2013,05,06,09,09,15.50
2013,05,06,09,10,15.60
2013,05,06,09,11,15.60
2013,05,06,09,12,15.70
2013,05,06,09,13,15.70
2013,05,06,09,14,15.80
2013,05,06,09,15,15.80
2013,05,06,09,16,15.90
2013,05,06,09,17,15.90
2013,05,06,09,18,16.00
2013,05,06,09,19,16.10
2013,05,06,09,20,16.10
2013,05,06,09,21,16.20
2013,05,06,09,22,16.30
2013,05,06,09,23,16.40
2013,05,06,09,24,16.50
2013,05,06,09,25,16.60
2013,05,06,09,26,16.50
2013,05,06,09,27,16.50
2013,05,06,09,28,16.40
2013,05,06,09,29,16.40
2013,05,06,09,30,16.40
2013,05,06,09,31,16.30
2013,05,06,09,32,16.30
2013,05,06,09,33,16.30
2013,05,06,09,34,16.30
2013,05,06,09,35,16.30
2013,05,06,09,36,16.30
2013,05,06,09,37,16.30
2013,05,06,09,38,16.30
2013,05,06,09,39,16.30
2013,05,06,09,40,16.30
2013,05,06,09,41,16.30
2013,05,06,09,42,16.30
2013,05,06,09,43,16.30
2013,05,06,09,44,16.30
2013,05,06,09,45,16.30
2013,05,06,09,46,16.40
2013,05,06,09,47,16.50
2013,05,06,09,48,16.60
2013,05,06,09,49,16.80
2013,05,06,09,50,16.90
2013,05,06,09,51,17.00
2013,05,06,09,52,17.20
2013,05,06,09,53,17.30
2013,05,06,09,54,17.50
2013,05,06,09,55,17.70
2013,05,06,09,56,17.80
2013,05,06,09,57,17.90
2013,05,06,09,58,18.00
2013,05,06,09,59,18.10
2013,05,06,10,00,18.20
2013,05,06,10,01,18.20
2013,05,06,10,02,18.20
2013,05,06,10,03,18.10
2013,05,06,10,04,18.00
2013,05,06,10,05,17.80
2013,05,06,10,06,17.70
2013,05,06,10,07,17.70
2013,05,06,10,08,17.60
2013,05,06,10,09,17.50
2013,05,06,10,10,17.50
2013,05,06,10,11,17.40
2013,05,06,10,12,17.40
2013,05,06,10,13,17.30
2013,05,06,10,14,17.30
2013,05,06,10,15,17.30
2013,05,06,10,16,17.30
2013,05,06,10,17,17.40
2013,05,06,10,18,17.50
2013,05,06,10,19,17.60
2013,05,06,10,20,17.70
2013,05,06,10,21,17.80
2013,05,06,10,22,17.80
2013,05,06,10,23,17.90
2013,05,06,10,24,17.90
2013,05,06,10,25,18.00
2013,05,06,10,26,18.00
2013,05,06,10,27,18.00
2013,05,06,10,28,18.00
2013,05,06,10,29,18.00
2013,05,06,10,30,18.00
2013,05,06,10,31,18.10
2013,05,06,10,32,18.10
2013,05,06,10,33,18.20
2013,05,06,10,34,18.20
2013,05,06,10,35,18.30
2013,05,06,10,36,18.40
2013,05,06,10,37,18.50
2013,05,06,10,38,18.60
2013,05,06,10,39,18.70
2013,05,06,10,40,18.80
2013,05,06,10,41,19.00
2013,05,06,10,42,19.00
2013,05,06,10,43,18.90
2013,05,06,10,44,18.50
2013,05,06,10,45,18.10
2013,05,06,10,46,17.90
2013,05,06,10,47,17.70
2013,05,06,10,48,17.50
2013,05,06,10,49,17.40
2013,05,06,10,50,17.40
2013,05,06,10,51,17.30
2013,05,06,10,52,17.30
2013,05,06,10,53,17.20
2013,05,06,10,54,17.00
2013,05,06,10,55,16.90
2013,05,06,10,56,16.80
2013,05,06,10,57,16.70
2013,05,06,10,58,16.70
2013,05,06,10,59,16.60
2013,05,06,11,00,16.60
2013,05,06,11,01,16.60
2013,05,06,11,02,16.60
2013,05,06,11,03,16.60
2013,05,06,11,04,16.70
2013,05,06,11,05,16.80
2013,05,06,11,06,16.90
2013,05,06,11,07,17.00
2013,05,06,11,08,17.10
2013,05,06,11,09,17.20
2013,05,06,11,10,17.20
2013,05,06,11,11,17.30
2013,05,06,11,12,17.30
2013,05,06,11,13,17.40
2013,05,06,11,14,17.40
2013,05,06,11,15,17.40
2013,05,06,11,16,17.40
2013,05,06,11,17,17.40
2013,05,06,11,18,17.40
2013,05,06,11,19,17.50
2013,05,06,11,20,17.60
2013,05,06,11,21,17.80
2013,05,06,11,22,17.90
2013,05,06,11,23,18.10
2013,05,06,11,24,18.30
2013,05,06,11,25,18.50
2013,05,06,11,26,18.80
2013,05,06,11,27,19.00
2013,05,06,11,28,19.20
2013,05,06,11,29,19.40
2013,05,06,11,30,19.60
2013,05,06,11,31,19.80
2013,05,06,11,32,19.90
2013,05,06,11,33,19.90
2013,05,06,11,34,19.90
2013,05,06,11,35,19.90
2013,05,06,11,36,19.90
2013,05,06,11,37,19.80
2013,05,06,11,38,19.70
2013,05,06,11,39,19.60
2013,05,06,11,40,19.50
2013,05,06,11,41,19.40
2013,05,06,11,42,19.40
2013,05,06,11,43,19.40
2013,05,06,11,44,19.50
2013,05,06,11,45,19.60
2013,05,06,11,46,19.70
2013,05,06,11,47,19.80
2013,05,06,11,48,19.90
2013,05,06,11,49,20.10
2013,05,06,11,50,20.20
2013,05,06,11,51,20.30
2013,05,06,11,52,20.20
2013,05,06,11,53,20.10
2013,05,06,11,54,20.10
2013,05,06,11,55,20.10
2013,05,06,11,56,20.20
2013,05,06,11,57,20.30
2013,05,06,11,58,20.30
2013,05,06,11,59,20.30
2013,05,06,12,00,20.30
2013,05,06,12,01,20.30
2013,05,06,12,02,20.30
2013,05,06,12,03,20.30
2013,05,06,12,04,20.30
2013,05,06,12,05,20.30
2013,05,06,12,06,20.20
2013,05,06,12,07,20.10
2013,05,06,12,08,19.90
2013,05,06,12,09,19.70
2013,05,06,12,10,19.60
2013,05,06,12,11,19.40
2013,05,06,12,12,19.30
2013,05,06,12,13,18.90
2013,05,06,12,14,18.60
2013,05,06,12,15,18.20
2013,05,06,12,16,17.90
2013,05,06,12,17,17.70
2013,05,06,12,18,17.50
2013,05,06,12,19,17.40
2013,05,06,12,20,17.30
2013,05,06,12,21,17.30
2013,05,06,12,22,17.30
2013,05,06,12,23,17.30
2013,05,06,12,24,17.30
2013,05,06,12,25,17.30
2013,05,06,12,26,17.30
2013,05,06,12,27,17.30
2013,05,06,12,28,17.20
2013,05,06,12,29,17.00
2013,05,06,12,30,16.90
2013,05,06,12,31,17.00
2013,05,06,12,32,17.00
2013,05,06,12,33,17.10
2013,05,06,12,34,17.10
2013,05,06,12,35,17.20
2013,05,06,12,36,17.40
2013,05,06,12,37,17.50
2013,05,06,12,38,17.60
2013,05,06,12,39,17.60
2013,05,06,12,40,17.70
2013,05,06,12,41,17.70
2013,05,06,12,42,17.80
2013,05,06,12,43,17.80
2013,05,06,12,44,17.90
2013,05,06,12,45,18.00
2013,05,06,12,46,18.10
2013,05,06,12,47,18.20
2013,05,06,12,48,18.40
2013,05,06,12,49,18.60
2013,05,06,12,50,18.60
2013,05,06,12,51,18.50
2013,05,06,12,52,18.40
2013,05,06,12,53,18.30
2013,05,06,12,54,18.30
2013,05,06,12,55,18.10
2013,05,06,12,56,18.00
2013,05,06,12,57,17.80
2013,05,06,12,58,17.70
2013,05,06,12,59,17.60
2013,05,06,13,00,17.60
2013,05,06,13,01,17.60
2013,05,06,13,02,17.60
2013,05,06,13,03,17.60
2013,05,06,13,04,17.70
2013,05,06,13,05,17.70
2013,05,06,13,06,17.70
2013,05,06,13,07,17.70
2013,05,06,13,08,17.80
2013,05,06,13,09,17.90
2013,05,06,13,10,17.90
2013,05,06,13,11,18.00
2013,05,06,13,12,18.10
2013,05,06,13,13,18.30
2013,05,06,13,14,18.30
2013,05,06,13,15,18.30
2013,05,06,13,16,18.30
2013,05,06,13,17,18.30
2013,05,06,13,18,18.20
2013,05,06,13,19,18.20
2013,05,06,13,20,18.20
2013,05,06,13,21,18.10
2013,05,06,13,22,18.00
2013,05,06,13,23,18.00
2013,05,06,13,24,17.90
2013,05,06,13,25,17.90
2013,05,06,13,26,17.90
2013,05,06,13,27,17.90
2013,05,06,13,28,17.80
2013,05,06,13,29,17.80
2013,05,06,13,30,17.90
2013,05,06,13,31,17.90
2013,05,06,13,32,18.00
2013,05,06,13,33,18.00
2013,05,06,13,34,18.00
2013,05,06,13,35,18.10
2013,05,06,13,36,18.20
2013,05,06,13,37,18.30
2013,05,06,13,38,18.40
2013,05,06,13,39,18.50
2013,05,06,13,40,18.60
2013,05,06,13,41,18.70
2013,05,06,13,42,18.80
2013,05,06,13,43,18.90
2013,05,06,13,44,19.00
2013,05,06,13,45,19.10
2013,05,06,13,46,19.10
2013,05,06,13,47,19.10
2013,05,06,13,48,19.10
2013,05,06,13,49,19.10
2013,05,06,13,50,19.10
2013,05,06,13,51,19.10
2013,05,06,13,52,19.10
2013,05,06,13,53,19.10
2013,05,06,13,54,19.10
2013,05,06,13,55,19.00
2013,05,06,13,56,19.00
2013,05,06,13,57,18.90
2013,05,06,13,58,18.90
2013,05,06,13,59,18.90
2013,05,06,14,00,18.90
2013,05,06,14,01,19.00
2013,05,06,14,02,19.00
2013,05,06,14,03,19.00
2013,05,06,14,04,18.90
2013,05,06,14,05,18.90
2013,05,06,14,06,18.80
2013,05,06,14,07,18.80
2013,05,06,14,08,18.90
2013,05,06,14,09,18.90
2013,05,06,14,10,18.90
2013,05,06,14,11,18.90
2013,05,06,14,12,18.90
2013,05,06,14,13,19.00
2013,05,06,14,14,19.20
2013,05,06,14,15,19.30
2013,05,06,14,16,19.40
2013,05,06,14,17,19.50
2013,05,06,14,18,19.50
2013,05,06,14,19,19.50
2013,05,06,14,20,19.50
2013,05,06,14,21,19.60
2013,05,06,14,22,19.60
2013,05,06,14,23,19.70
2013,05,06,14,24,19.80
2013,05,06,14,25,19.90
2013,05,06,14,26,20.00
2013,05,06,14,27,20.00
2013,05,06,14,28,20.00
2013,05,06,14,29,20.00
2013,05,06,14,30,20.00
2013,05,06,14,31,19.90
2013,05,06,14,32,19.90
2013,05,06,14,33,19.90
2013,05,06,14,34,19.90
2013,05,06,14,35,20.00
2013,05,06,14,36,20.00
2013,05,06,14,37,19.90
2013,05,06,14,38,20.00
2013,05,06,14,39,20.00
2013,05,06,14,40,20.00
2013,05,06,14,41,20.10
2013,05,06,14,42,20.10
2013,05,06,14,43,20.10
2013,05,06,14,44,20.10
2013,05,06,14,45,20.10
2013,05,06,14,46,20.00
2013,05,06,14,47,19.90
2013,05,06,14,48,19.80
2013,05,06,14,49,19.80
2013,05,06,14,50,19.70
2013,05,06,14,51,19.70
2013,05,06,14,52,19.50
2013,05,06,14,53,19.40
2013,05,06,14,54,19.30
2013,05,06,14,55,19.20
2013,05,06,14,56,19.10
2013,05,06,14,57,19.10
2013,05,06,14,58,19.10
2013,05,06,14,59,19.20
2013,05,06,15,00,19.20
2013,05,06,15,01,19.30
2013,05,06,15,02,19.30
2013,05,06,15,03,19.40
2013,05,06,15,04,19.50
2013,05,06,15,05,19.50
2013,05,06,15,06,19.60
2013,05,06,15,07,19.70
2013,05,06,15,08,19.80
2013,05,06,15,09,19.80
2013,05,06,15,10,19.80
2013,05,06,15,11,19.80
2013,05,06,15,12,19.70
2013,05,06,15,13,19.60
2013,05,06,15,14,19.50
2013,05,06,15,15,19.40
2013,05,06,15,16,19.40
2013,05,06,15,17,19.30
2013,05,06,15,18,19.30
2013,05,06,15,19,19.40
2013,05,06,15,20,19.30
2013,05,06,15,21,19.30
2013,05,06,15,22,19.30
2013,05,06,15,23,19.30
2013,05,06,15,24,19.40
2013,05,06,15,25,19.50
2013,05,06,15,26,19.50
2013,05,06,15,27,19.60
2013,05,06,15,28,19.60
2013,05,06,15,29,19.70
2013,05,06,15,30,19.90
2013,05,06,15,31,20.10
2013,05,06,15,32,20.30
2013,05,06,15,33,20.30
2013,05,06,15,34,20.30
2013,05,06,15,35,20.30
2013,05,06,15,36,20.20
2013,05,06,15,37,20.10
2013,05,06,15,38,20.10
2013,05,06,15,39,20.10
2013,05,06,15,40,20.00
2013,05,06,15,41,20.00
2013,05,06,15,42,19.90
2013,05,06,15,43,19.90
2013,05,06,15,44,19.90
2013,05,06,15,45,19.80
2013,05,06,15,46,19.70
2013,05,06,15,47,19.60
2013,05,06,15,48,19.60
2013,05,06,15,49,19.60
2013,05,06,15,50,19.60
2013,05,06,15,51,19.60
2013,05,06,15,52,19.70
2013,05,06,15,53,19.80
2013,05,06,15,54,20.00
2013,05,06,15,55,20.10
2013,05,06,15,56,20.20
2013,05,06,15,57,20.30
2013,05,06,15,58,20.30
2013,05,06,15,59,20.30
2013,05,06,16,00,20.30
2013,05,06,16,01,20.30
2013,05,06,16,02,20.30
2013,05,06,16,03,20.30
2013,05,06,16,04,20.10
2013,05,06,16,05,20.10
2013,05,06,16,06,20.10
2013,05,06,16,07,20.10
2013,05,06,16,08,20.10
2013,05,06,16,09,20.10
2013,05,06,16,10,20.20
2013,05,06,16,11,20.20
2013,05,06,16,12,20.30
2013,05,06,16,13,20.30
2013,05,06,16,14,20.40
2013,05,06,16,15,20.60
2013,05,06,16,16,20.70
2013,05,06,16,17,20.80
2013,05,06,16,18,20.80
2013,05,06,16,19,20.80
2013,05,06,16,20,20.80
2013,05,06,16,21,20.90
2013,05,06,16,22,20.90
2013,05,06,16,23,21.00
2013,05,06,16,24,21.00
2013,05,06,16,25,21.10
2013,05,06,16,26,21.10
2013,05,06,16,27,21.20
2013,05,06,16,28,21.20
2013,05,06,16,29,21.20
2013,05,06,16,30,21.10
2013,05,06,16,31,21.00
2013,05,06,16,32,20.90
2013,05,06,16,33,20.90
2013,05,06,16,34,20.80
2013,05,06,16,35,20.60
2013,05,06,16,36,20.40
2013,05,06,16,37,20.10
2013,05,06,16,38,20.00
2013,05,06,16,39,19.90
2013,05,06,16,40,19.80
2013,05,06,16,41,19.70
2013,05,06,16,42,19.60
2013,05,06,16,43,19.50
2013,05,06,16,44,19.50
2013,05,06,16,45,19.30
2013,05,06,16,46,19.20
2013,05,06,16,47,19.10
2013,05,06,16,48,19.00
2013,05,06,16,49,18.90
2013,05,06,16,50,18.70
2013,05,06,16,51,18.50
2013,05,06,16,52,18.40
2013,05,06,16,53,18.30
2013,05,06,16,54,18.10
2013,05,06,16,55,18.00
2013,05,06,16,56,17.80
2013,05,06,16,57,17.70
2013,05,06,16,58,17.60
2013,05,06,16,59,17.50
2013,05,06,17,00,17.50
2013,05,06,17,01,17.30
2013,05,06,17,02,17.30
2013,05,06,17,03,17.20
2013,05,06,17,04,17.20
2013,05,06,17,05,17.10
2013,05,06,17,06,17.00
2013,05,06,17,07,16.80
2013,05,06,17,08,16.70
2013,05,06,17,09,16.50
2013,05,06,17,10,16.30
2013,05,06,17,11,16.20
2013,05,06,17,12,16.00
2013,05,06,17,13,15.90
2013,05,06,17,14,15.80
2013,05,06,17,15,15.70
2013,05,06,17,16,15.60
2013,05,06,17,17,15.50
2013,05,06,17,18,15.50
2013,05,06,17,19,15.40